Year,Month,Day,Hour,Minute,Value (Times are PST for windspeed in km/hr)
2014,03,20,00,00,17.00
2014,03,20,00,01,16.90
2014,03,20,00,02,15.80
2014,03,20,00,03,11.80
2014,03,20,00,04,14.80
2014,03,20,00,05,11.40
2014,03,20,00,06,17.60
2014,03,20,00,07,18.30
2014,03,20,00,08,14.30
2014,03,20,00,09,9.70
2014,03,20,00,10,6.20
2014,03,20,00,11,9.60
2014,03,20,00,12,16.40
2014,03,20,00,13,17.90
2014,03,20,00,14,18.30
2014,03,20,00,15,14.30
2014,03,20,00,16,14.70
2014,03,20,00,17,11.20
2014,03,20,00,18,10.20
2014,03,20,00,19,5.90
2014,03,20,00,20,6.40
2014,03,20,00,21,2.40
2014,03,20,00,22,0.00
2014,03,20,00,23,0.10
2014,03,20,00,24,1.30
2014,03,20,00,25,4.60
2014,03,20,00,26,3.60
2014,03,20,00,27,7.70
2014,03,20,00,28,8.00
2014,03,20,00,29,9.80
2014,03,20,00,30,5.70
2014,03,20,00,31,4.60
2014,03,20,00,32,2.90
2014,03,20,00,33,3.50
2014,03,20,00,34,5.70
2014,03,20,00,35,5.80
2014,03,20,00,36,4.70
2014,03,20,00,37,5.00
2014,03,20,00,38,9.50
2014,03,20,00,39,11.20
2014,03,20,00,40,10.50
2014,03,20,00,41,7.20
2014,03,20,00,42,8.00
2014,03,20,00,43,4.40
2014,03,20,00,44,10.90
2014,03,20,00,45,9.00
2014,03,20,00,46,7.60
2014,03,20,00,47,7.20
2014,03,20,00,48,11.20
2014,03,20,00,49,8.50
2014,03,20,00,50,11.30
2014,03,20,00,51,11.90
2014,03,20,00,52,11.80
2014,03,20,00,53,15.90
2014,03,20,00,54,13.30
2014,03,20,00,55,12.30
2014,03,20,00,56,7.50
2014,03,20,00,57,3.50
2014,03,20,00,58,1.90
2014,03,20,00,59,2.00
2014,03,20,01,00,2.70
2014,03,20,01,01,0.80
2014,03,20,01,02,0.00
2014,03,20,01,03,1.80
2014,03,20,01,04,5.20
2014,03,20,01,05,4.00
2014,03,20,01,06,3.30
2014,03,20,01,07,1.30
2014,03,20,01,08,0.50
2014,03,20,01,09,0.50
2014,03,20,01,10,0.70
2014,03,20,01,11,1.60
2014,03,20,01,12,1.10
2014,03,20,01,13,1.70
2014,03,20,01,14,0.70
2014,03,20,01,15,2.00
2014,03,20,01,16,2.70
2014,03,20,01,17,3.60
2014,03,20,01,18,3.10
2014,03,20,01,19,3.50
2014,03,20,01,20,1.90
2014,03,20,01,21,2.40
2014,03,20,01,22,2.30
2014,03,20,01,23,1.50
2014,03,20,01,24,1.20
2014,03,20,01,25,5.80
2014,03,20,01,26,4.00
2014,03,20,01,27,1.40
2014,03,20,01,28,2.30
2014,03,20,01,29,3.00
2014,03,20,01,30,4.70
2014,03,20,01,31,5.20
2014,03,20,01,32,7.60
2014,03,20,01,33,7.10
2014,03,20,01,34,4.00
2014,03,20,01,35,1.20
2014,03,20,01,36,0.90
2014,03,20,01,37,0.50
2014,03,20,01,38,2.40
2014,03,20,01,39,4.80
2014,03,20,01,40,3.20
2014,03,20,01,41,0.30
2014,03,20,01,42,0.10
2014,03,20,01,43,0.30
2014,03,20,01,44,2.10
2014,03,20,01,45,3.60
2014,03,20,01,46,4.40
2014,03,20,01,47,2.20
2014,03,20,01,48,1.40
2014,03,20,01,49,1.50
2014,03,20,01,50,0.40
2014,03,20,01,51,0.00
2014,03,20,01,52,0.00
2014,03,20,01,53,1.30
2014,03,20,01,54,0.50
2014,03,20,01,55,2.30
2014,03,20,01,56,1.70
2014,03,20,01,57,2.30
2014,03,20,01,58,3.20
2014,03,20,01,59,3.00
2014,03,20,02,00,6.20
2014,03,20,02,01,5.50
2014,03,20,02,02,2.50
2014,03,20,02,03,2.00
2014,03,20,02,04,2.80
2014,03,20,02,05,0.40
2014,03,20,02,06,0.00
2014,03,20,02,07,0.00
2014,03,20,02,08,0.00
2014,03,20,02,09,1.50
2014,03,20,02,10,1.10
2014,03,20,02,11,0.30
2014,03,20,02,12,0.20
2014,03,20,02,13,2.00
2014,03,20,02,14,6.10
2014,03,20,02,15,3.00
2014,03,20,02,16,0.10
2014,03,20,02,17,1.30
2014,03,20,02,18,2.00
2014,03,20,02,19,0.90
2014,03,20,02,20,1.20
2014,03,20,02,21,2.70
2014,03,20,02,22,2.50
2014,03,20,02,23,1.40
2014,03,20,02,24,0.00
2014,03,20,02,25,0.60
2014,03,20,02,26,2.90
2014,03,20,02,27,4.10
2014,03,20,02,28,2.60
2014,03,20,02,29,0.40
2014,03,20,02,30,0.60
2014,03,20,02,31,0.00
2014,03,20,02,32,0.00
2014,03,20,02,33,0.90
2014,03,20,02,34,2.40
2014,03,20,02,35,1.00
2014,03,20,02,36,0.40
2014,03,20,02,37,0.70
2014,03,20,02,38,2.80
2014,03,20,02,39,3.50
2014,03,20,02,40,3.20
2014,03,20,02,41,2.60
2014,03,20,02,42,0.70
2014,03,20,02,43,1.50
2014,03,20,02,44,3.20
2014,03,20,02,45,3.90
2014,03,20,02,46,2.60
2014,03,20,02,47,2.30
2014,03,20,02,48,3.50
2014,03,20,02,49,4.80
2014,03,20,02,50,4.90
2014,03,20,02,51,2.70
2014,03,20,02,52,1.50
2014,03,20,02,53,0.00
2014,03,20,02,54,0.00
2014,03,20,02,55,0.00
2014,03,20,02,56,1.60
2014,03,20,02,57,1.60
2014,03,20,02,58,1.60
2014,03,20,02,59,2.00
2014,03,20,03,00,1.60
2014,03,20,03,01,0.30
2014,03,20,03,02,0.00
2014,03,20,03,03,0.10
2014,03,20,03,06,1.40
2014,03,20,03,07,1.60
2014,03,20,03,08,0.60
2014,03,20,03,09,1.20
2014,03,20,03,10,0.00
2014,03,20,03,11,1.90
2014,03,20,03,12,4.70
2014,03,20,03,13,3.70
2014,03,20,03,14,2.10
2014,03,20,03,15,3.00
2014,03,20,03,16,1.60
2014,03,20,03,17,0.00
2014,03,20,03,18,0.00
2014,03,20,03,19,2.10
2014,03,20,03,20,1.80
2014,03,20,03,21,1.60
2014,03,20,03,22,1.60
2014,03,20,03,23,2.90
2014,03,20,03,24,4.20
2014,03,20,03,25,4.80
2014,03,20,03,26,2.50
2014,03,20,03,27,0.00
2014,03,20,03,28,0.00
2014,03,20,03,29,0.00
2014,03,20,03,30,0.00
2014,03,20,03,31,0.10
2014,03,20,03,32,0.00
2014,03,20,03,33,1.20
2014,03,20,03,34,1.40
2014,03,20,03,35,0.90
2014,03,20,03,36,0.90
2014,03,20,03,37,1.00
2014,03,20,03,38,1.90
2014,03,20,03,39,2.20
2014,03,20,03,40,1.40
2014,03,20,03,41,2.30
2014,03,20,03,42,3.70
2014,03,20,03,43,2.30
2014,03,20,03,44,1.50
2014,03,20,03,45,0.50
2014,03,20,03,46,0.20
2014,03,20,03,47,0.20
2014,03,20,03,48,0.00
2014,03,20,03,49,0.10
2014,03,20,03,50,0.00
2014,03,20,03,51,0.10
2014,03,20,03,52,1.60
2014,03,20,03,53,1.40
2014,03,20,03,54,0.00
2014,03,20,03,55,2.10
2014,03,20,03,56,4.30
2014,03,20,03,57,3.20
2014,03,20,03,58,1.80
2014,03,20,03,59,0.80
2014,03,20,04,00,0.60
2014,03,20,04,01,0.30
2014,03,20,04,02,0.00
2014,03,20,04,03,0.60
2014,03,20,04,04,0.60
2014,03,20,04,05,0.30
2014,03,20,04,06,0.00
2014,03,20,04,07,0.50
2014,03,20,04,08,1.60
2014,03,20,04,09,1.70
2014,03,20,04,10,1.60
2014,03,20,04,11,1.70
2014,03,20,04,12,1.90
2014,03,20,04,13,1.60
2014,03,20,04,14,2.30
2014,03,20,04,15,3.20
2014,03,20,04,16,2.80
2014,03,20,04,17,3.90
2014,03,20,04,18,5.10
2014,03,20,04,19,3.40
2014,03,20,04,20,1.00
2014,03,20,04,21,1.60
2014,03,20,04,22,0.80
2014,03,20,04,23,1.00
2014,03,20,04,24,4.40
2014,03,20,04,25,3.70
2014,03,20,04,26,1.80
2014,03,20,04,27,0.30
2014,03,20,04,28,0.80
2014,03,20,04,29,0.00
2014,03,20,04,30,1.10
2014,03,20,04,31,5.10
2014,03,20,04,32,3.00
2014,03,20,04,33,4.10
2014,03,20,04,34,7.30
2014,03,20,04,35,6.20
2014,03,20,04,36,1.20
2014,03,20,04,37,0.80
2014,03,20,04,38,5.40
2014,03,20,04,39,6.10
2014,03,20,04,40,1.50
2014,03,20,04,41,3.80
2014,03,20,04,42,1.80
2014,03,20,04,43,1.80
2014,03,20,04,44,4.40
2014,03,20,04,45,3.20
2014,03,20,04,46,0.50
2014,03,20,04,47,0.00
2014,03,20,04,48,0.00
2014,03,20,04,49,2.00
2014,03,20,04,50,1.70
2014,03,20,04,51,1.60
2014,03,20,04,52,1.00
2014,03,20,04,53,1.80
2014,03,20,04,54,0.80
2014,03,20,04,55,0.00
2014,03,20,04,56,0.70
2014,03,20,04,57,1.50
2014,03,20,04,58,0.60
2014,03,20,04,59,0.20
2014,03,20,05,00,1.20
2014,03,20,05,01,2.00
2014,03,20,05,02,2.90
2014,03,20,05,03,2.80
2014,03,20,05,04,1.40
2014,03,20,05,05,1.60
2014,03,20,05,06,0.70
2014,03,20,05,07,2.70
2014,03,20,05,08,3.60
2014,03,20,05,09,2.70
2014,03,20,05,10,2.30
2014,03,20,05,11,2.50
2014,03,20,05,12,1.50
2014,03,20,05,13,0.10
2014,03,20,05,14,3.10
2014,03,20,05,15,5.40
2014,03,20,05,16,3.10
2014,03,20,05,17,0.30
2014,03,20,05,18,1.00
2014,03,20,05,19,3.40
2014,03,20,05,20,3.70
2014,03,20,05,21,2.30
2014,03,20,05,22,1.00
2014,03,20,05,23,0.00
2014,03,20,05,24,0.80
2014,03,20,05,25,0.60
2014,03,20,05,26,2.60
2014,03,20,05,27,4.50
2014,03,20,05,28,2.90
2014,03,20,05,29,0.20
2014,03,20,05,30,0.00
2014,03,20,05,31,0.60
2014,03,20,05,32,1.00
2014,03,20,05,33,0.00
2014,03,20,05,34,0.00
2014,03,20,05,35,0.00
2014,03,20,05,36,0.00
2014,03,20,05,37,0.00
2014,03,20,05,38,0.20
2014,03,20,05,39,0.10
2014,03,20,05,40,4.60
2014,03,20,05,41,1.90
2014,03,20,05,42,0.00
2014,03,20,05,43,0.50
2014,03,20,05,44,3.00
2014,03,20,05,45,2.30
2014,03,20,05,46,0.30
2014,03,20,05,47,0.00
2014,03,20,05,48,1.40
2014,03,20,05,49,1.00
2014,03,20,05,50,1.40
2014,03,20,05,51,3.80
2014,03,20,05,52,2.40
2014,03,20,05,53,0.00
2014,03,20,05,54,1.00
2014,03,20,05,55,1.60
2014,03,20,05,56,0.60
2014,03,20,05,57,1.00
2014,03,20,05,58,0.00
2014,03,20,05,59,1.30
2014,03,20,06,00,0.30
2014,03,20,06,01,2.10
2014,03,20,06,02,1.60
2014,03,20,06,03,3.40
2014,03,20,06,04,4.80
2014,03,20,06,05,3.10
2014,03,20,06,06,1.70
2014,03,20,06,07,1.80
2014,03,20,06,08,0.20
2014,03,20,06,09,0.90
2014,03,20,06,10,0.60
2014,03,20,06,11,0.70
2014,03,20,06,12,0.90
2014,03,20,06,13,0.20
2014,03,20,06,14,0.20
2014,03,20,06,15,2.70
2014,03,20,06,16,6.00
2014,03,20,06,17,4.10
2014,03,20,06,18,1.90
2014,03,20,06,19,1.40
2014,03,20,06,20,1.70
2014,03,20,06,21,1.10
2014,03,20,06,22,0.00
2014,03,20,06,23,0.00
2014,03,20,06,24,0.00
2014,03,20,06,25,0.00
2014,03,20,06,26,0.30
2014,03,20,06,27,1.50
2014,03,20,06,28,2.80
2014,03,20,06,29,2.60
2014,03,20,06,30,0.60
2014,03,20,06,31,0.00
2014,03,20,06,32,0.00
2014,03,20,06,33,0.00
2014,03,20,06,34,0.00
2014,03,20,06,35,0.00
2014,03,20,06,36,0.10
2014,03,20,06,37,0.00
2014,03,20,06,38,0.30
2014,03,20,06,39,0.50
2014,03,20,06,40,0.00
2014,03,20,06,41,1.40
2014,03,20,06,42,1.90
2014,03,20,06,43,0.60
2014,03,20,06,44,0.00
2014,03,20,06,45,0.00
2014,03,20,06,46,0.70
2014,03,20,06,47,0.10
2014,03,20,06,48,0.00
2014,03,20,06,49,0.10
2014,03,20,06,50,0.20
2014,03,20,06,51,0.00
2014,03,20,06,52,0.10
2014,03,20,06,53,2.20
2014,03,20,06,54,2.30
2014,03,20,06,55,2.90
2014,03,20,06,56,1.60
2014,03,20,06,57,2.20
2014,03,20,06,58,1.90
2014,03,20,06,59,1.60
2014,03,20,07,00,0.30
2014,03,20,07,01,0.00
2014,03,20,07,02,0.60
2014,03,20,07,03,0.00
2014,03,20,07,04,1.60
2014,03,20,07,05,0.70
2014,03,20,07,06,0.70
2014,03,20,07,07,2.30
2014,03,20,07,08,2.50
2014,03,20,07,09,0.20
2014,03,20,07,10,0.00
2014,03,20,07,11,0.00
2014,03,20,07,12,0.00
2014,03,20,07,13,0.70
2014,03,20,07,14,1.40
2014,03,20,07,15,0.30
2014,03,20,07,16,0.00
2014,03,20,07,17,0.10
2014,03,20,07,18,0.10
2014,03,20,07,19,0.00
2014,03,20,07,20,0.80
2014,03,20,07,21,0.60
2014,03,20,07,22,1.50
2014,03,20,07,23,1.80
2014,03,20,07,24,1.60
2014,03,20,07,25,1.90
2014,03,20,07,26,2.30
2014,03,20,07,27,1.50
2014,03,20,07,28,1.80
2014,03,20,07,29,0.80
2014,03,20,07,30,0.00
2014,03,20,07,31,0.00
2014,03,20,07,32,0.00
2014,03,20,07,33,0.20
2014,03,20,07,34,0.00
2014,03,20,07,35,0.00
2014,03,20,07,36,0.00
2014,03,20,07,37,0.60
2014,03,20,07,38,0.00
2014,03,20,07,39,0.00
2014,03,20,07,40,0.00
2014,03,20,07,41,0.00
2014,03,20,07,42,0.00
2014,03,20,07,43,0.00
2014,03,20,07,44,1.70
2014,03,20,07,45,2.20
2014,03,20,07,46,2.10
2014,03,20,07,47,2.00
2014,03,20,07,48,0.80
2014,03,20,07,49,0.80
2014,03,20,07,50,0.60
2014,03,20,07,51,0.00
2014,03,20,07,52,2.40
2014,03,20,07,53,3.60
2014,03,20,07,54,4.50
2014,03,20,07,55,2.90
2014,03,20,07,56,4.00
2014,03,20,07,57,4.10
2014,03,20,07,58,4.80
2014,03,20,07,59,3.30
2014,03,20,08,00,2.10
2014,03,20,08,01,1.10
2014,03,20,08,02,0.20
2014,03,20,08,03,0.20
2014,03,20,08,04,0.30
2014,03,20,08,05,0.10
2014,03,20,08,06,0.20
2014,03,20,08,07,1.80
2014,03,20,08,08,3.00
2014,03,20,08,09,1.00
2014,03,20,08,10,0.60
2014,03,20,08,11,0.00
2014,03,20,08,12,1.00
2014,03,20,08,13,6.20
2014,03,20,08,14,7.10
2014,03,20,08,15,3.20
2014,03,20,08,16,2.00
2014,03,20,08,17,3.50
2014,03,20,08,18,5.60
2014,03,20,08,19,6.40
2014,03,20,08,20,7.60
2014,03,20,08,21,4.70
2014,03,20,08,22,5.60
2014,03,20,08,23,4.20
2014,03,20,08,24,4.20
2014,03,20,08,25,5.60
2014,03,20,08,26,5.80
2014,03,20,08,27,5.20
2014,03,20,08,28,6.40
2014,03,20,08,29,6.30
2014,03,20,08,30,6.60
2014,03,20,08,31,6.40
2014,03,20,08,32,5.60
2014,03,20,08,33,4.60
2014,03,20,08,34,4.00
2014,03,20,08,35,5.30
2014,03,20,08,36,3.20
2014,03,20,08,37,3.60
2014,03,20,08,38,5.50
2014,03,20,08,39,4.40
2014,03,20,08,40,4.50
2014,03,20,08,41,4.80
2014,03,20,08,42,4.40
2014,03,20,08,43,5.00
2014,03,20,08,44,5.20
2014,03,20,08,45,4.80
2014,03,20,08,46,4.70
2014,03,20,08,47,5.50
2014,03,20,08,48,6.20
2014,03,20,08,49,6.20
2014,03,20,08,50,6.20
2014,03,20,08,51,6.50
2014,03,20,08,52,6.00
2014,03,20,08,53,5.90
2014,03,20,08,54,4.70
2014,03,20,08,55,4.30
2014,03,20,08,56,3.40
2014,03,20,08,57,1.80
2014,03,20,08,58,1.10
2014,03,20,08,59,0.50
2014,03,20,09,00,0.80
2014,03,20,09,01,0.00
2014,03,20,09,02,0.10
2014,03,20,09,03,1.00
2014,03,20,09,04,2.90
2014,03,20,09,05,3.00
2014,03,20,09,06,3.20
2014,03,20,09,07,3.40
2014,03,20,09,08,4.10
2014,03,20,09,09,4.80
2014,03,20,09,10,5.00
2014,03,20,09,11,4.80
2014,03,20,09,12,4.40
2014,03,20,09,13,3.70
2014,03,20,09,14,3.80
2014,03,20,09,15,2.90
2014,03,20,09,16,2.20
2014,03,20,09,17,2.70
2014,03,20,09,18,3.30
2014,03,20,09,19,2.70
2014,03,20,09,20,1.90
2014,03,20,09,21,3.90
2014,03,20,09,22,1.50
2014,03,20,09,23,4.60
2014,03,20,09,24,5.20
2014,03,20,09,25,4.80
2014,03,20,09,26,5.10
2014,03,20,09,27,4.80
2014,03,20,09,28,4.10
2014,03,20,09,29,4.30
2014,03,20,09,30,4.70
2014,03,20,09,31,4.10
2014,03,20,09,32,3.20
2014,03,20,09,33,3.10
2014,03,20,09,34,2.60
2014,03,20,09,35,1.90
2014,03,20,09,36,3.30
2014,03,20,09,37,3.40
2014,03,20,09,38,4.30
2014,03,20,09,39,2.50
2014,03,20,09,40,1.60
2014,03,20,09,41,1.60
2014,03,20,09,42,1.60
2014,03,20,09,43,1.90
2014,03,20,09,44,2.10
2014,03,20,09,45,1.60
2014,03,20,09,46,2.70
2014,03,20,09,47,2.60
2014,03,20,09,48,3.60
2014,03,20,09,49,5.20
2014,03,20,09,50,5.10
2014,03,20,09,51,4.70
2014,03,20,09,52,4.70
2014,03,20,09,53,4.70
2014,03,20,09,54,4.80
2014,03,20,09,55,3.70
2014,03,20,09,56,3.50
2014,03,20,09,57,2.40
2014,03,20,09,58,4.10
2014,03,20,09,59,4.20
2014,03,20,10,00,6.40
2014,03,20,10,01,5.40
2014,03,20,10,02,5.10
2014,03,20,10,03,5.50
2014,03,20,10,04,4.90
2014,03,20,10,05,5.10
2014,03,20,10,06,4.90
2014,03,20,10,07,5.50
2014,03,20,10,08,7.10
2014,03,20,10,09,5.80
2014,03,20,10,10,5.30
2014,03,20,10,11,4.10
2014,03,20,10,12,2.50
2014,03,20,10,13,3.50
2014,03,20,10,14,6.40
2014,03,20,10,15,6.40
2014,03,20,10,16,4.40
2014,03,20,10,17,3.30
2014,03,20,10,18,5.00
2014,03,20,10,19,5.30
2014,03,20,10,20,4.80
2014,03,20,10,21,5.70
2014,03,20,10,22,6.30
2014,03,20,10,23,5.10
2014,03,20,10,24,3.50
2014,03,20,10,25,4.30
2014,03,20,10,26,3.10
2014,03,20,10,27,3.90
2014,03,20,10,28,2.50
2014,03,20,10,29,3.00
2014,03,20,10,30,5.40
2014,03,20,10,31,4.80
2014,03,20,10,32,6.30
2014,03,20,10,33,4.40
2014,03,20,10,34,3.40
2014,03,20,10,35,3.20
2014,03,20,10,36,2.40
2014,03,20,10,37,2.90
2014,03,20,10,38,2.90
2014,03,20,10,39,4.80
2014,03,20,10,40,3.40
2014,03,20,10,41,2.30
2014,03,20,10,42,1.60
2014,03,20,10,43,1.30
2014,03,20,10,44,0.00
2014,03,20,10,45,0.10
2014,03,20,10,46,1.30
2014,03,20,10,47,1.10
2014,03,20,10,48,0.00
2014,03,20,10,49,1.10
2014,03,20,10,50,5.00
2014,03,20,10,51,6.40
2014,03,20,10,52,7.40
2014,03,20,10,53,2.20
2014,03,20,10,54,4.10
2014,03,20,10,55,7.70
2014,03,20,10,56,5.40
2014,03,20,10,57,4.30
2014,03,20,10,58,4.30
2014,03,20,10,59,7.20
2014,03,20,11,00,3.10
2014,03,20,11,01,5.00
2014,03,20,11,02,3.30
2014,03,20,11,03,1.30
2014,03,20,11,04,0.80
2014,03,20,11,05,2.30
2014,03,20,11,06,1.50
2014,03,20,11,07,1.70
2014,03,20,11,08,6.90
2014,03,20,11,09,9.40
2014,03,20,11,10,8.10
2014,03,20,11,11,7.50
2014,03,20,11,12,6.20
2014,03,20,11,13,2.00
2014,03,20,11,14,2.90
2014,03,20,11,15,5.00
2014,03,20,11,16,8.90
2014,03,20,11,17,3.00
2014,03,20,11,18,1.90
2014,03,20,11,19,4.30
2014,03,20,11,20,7.10
2014,03,20,11,21,5.60
2014,03,20,11,22,4.20
2014,03,20,11,23,8.50
2014,03,20,11,24,9.30
2014,03,20,11,25,9.20
2014,03,20,11,26,9.70
2014,03,20,11,27,10.20
2014,03,20,11,28,7.60
2014,03,20,11,29,8.50
2014,03,20,11,30,8.50
2014,03,20,11,31,8.50
2014,03,20,11,32,7.60
2014,03,20,11,33,6.20
2014,03,20,11,34,8.60
2014,03,20,11,35,6.60
2014,03,20,11,36,3.60
2014,03,20,11,37,4.50
2014,03,20,11,38,9.20
2014,03,20,11,39,3.10
2014,03,20,11,40,6.30
2014,03,20,11,41,9.30
2014,03,20,11,42,8.30
2014,03,20,11,43,8.70
2014,03,20,11,44,8.10
2014,03,20,11,45,4.10
2014,03,20,11,46,3.60
2014,03,20,11,47,4.00
2014,03,20,11,48,3.50
2014,03,20,11,49,4.20
2014,03,20,11,50,5.50
2014,03,20,11,51,7.30
2014,03,20,11,52,4.10
2014,03,20,11,53,6.20
2014,03,20,11,54,7.70
2014,03,20,11,55,6.20
2014,03,20,11,56,4.10
2014,03,20,11,57,2.70
2014,03,20,11,58,4.70
2014,03,20,11,59,3.60
2014,03,20,12,00,4.10
2014,03,20,12,01,2.20
2014,03,20,12,02,5.70
2014,03,20,12,03,7.00
2014,03,20,12,04,6.50
2014,03,20,12,05,6.70
2014,03,20,12,06,6.00
2014,03,20,12,07,5.50
2014,03,20,12,08,2.40
2014,03,20,12,09,4.30
2014,03,20,12,10,3.30
2014,03,20,12,11,0.80
2014,03,20,12,12,1.90
2014,03,20,12,13,1.40
2014,03,20,12,14,1.10
2014,03,20,12,15,1.10
2014,03,20,12,16,2.90
2014,03,20,12,17,7.20
2014,03,20,12,18,9.70
2014,03,20,12,19,5.80
2014,03,20,12,20,7.30
2014,03,20,12,21,8.60
2014,03,20,12,22,7.80
2014,03,20,12,23,4.40
2014,03,20,12,24,6.40
2014,03,20,12,25,6.40
2014,03,20,12,26,7.00
2014,03,20,12,27,6.00
2014,03,20,12,28,5.20
2014,03,20,12,29,3.90
2014,03,20,12,30,2.70
2014,03,20,12,31,0.00
2014,03,20,12,32,4.60
2014,03,20,12,33,0.40
2014,03,20,12,34,0.00
2014,03,20,12,35,1.10
2014,03,20,12,36,0.60
2014,03,20,12,37,2.60
2014,03,20,12,38,3.20
2014,03,20,12,39,1.00
2014,03,20,12,40,1.20
2014,03,20,12,41,3.70
2014,03,20,12,42,2.60
2014,03,20,12,43,5.00
2014,03,20,12,44,5.30
2014,03,20,12,45,9.30
2014,03,20,12,46,8.60
2014,03,20,12,47,9.30
2014,03,20,12,48,8.30
2014,03,20,12,49,8.20
2014,03,20,12,50,8.40
2014,03,20,12,51,4.80
2014,03,20,12,52,2.30
2014,03,20,12,53,1.60
2014,03,20,12,54,6.90
2014,03,20,12,55,8.40
2014,03,20,12,56,5.10
2014,03,20,12,57,5.40
2014,03,20,12,58,7.30
2014,03,20,12,59,7.70
2014,03,20,13,00,5.40
2014,03,20,13,01,4.90
2014,03,20,13,02,4.50
2014,03,20,13,03,5.60
2014,03,20,13,04,6.60
2014,03,20,13,05,1.30
2014,03,20,13,06,0.60
2014,03,20,13,07,0.00
2014,03,20,13,08,0.40
2014,03,20,13,09,3.80
2014,03,20,13,10,4.10
2014,03,20,13,11,4.20
2014,03,20,13,12,3.80
2014,03,20,13,13,5.40
2014,03,20,13,14,8.60
2014,03,20,13,15,7.00
2014,03,20,13,16,7.20
2014,03,20,13,17,9.10
2014,03,20,13,18,7.40
2014,03,20,13,19,12.20
2014,03,20,13,20,10.50
2014,03,20,13,21,7.30
2014,03,20,13,22,4.80
2014,03,20,13,23,3.60
2014,03,20,13,24,6.00
2014,03,20,13,25,8.00
2014,03,20,13,26,6.00
2014,03,20,13,27,5.30
2014,03,20,13,28,5.30
2014,03,20,13,29,3.60
2014,03,20,13,30,1.60
2014,03,20,13,31,2.50
2014,03,20,13,32,0.30
2014,03,20,13,33,0.00
2014,03,20,13,34,0.00
2014,03,20,13,35,0.00
2014,03,20,13,36,0.10
2014,03,20,13,37,0.90
2014,03,20,13,38,0.70
2014,03,20,13,39,2.90
2014,03,20,13,40,4.90
2014,03,20,13,41,8.60
2014,03,20,13,42,8.00
2014,03,20,13,43,9.80
2014,03,20,13,44,10.50
2014,03,20,13,45,10.90
2014,03,20,13,46,11.30
2014,03,20,13,47,10.00
2014,03,20,13,48,9.60
2014,03,20,13,49,9.40
2014,03,20,13,50,10.50
2014,03,20,13,51,12.70
2014,03,20,13,52,11.70
2014,03,20,13,53,11.20
2014,03,20,13,54,8.90
2014,03,20,13,55,7.90
2014,03,20,13,56,8.20
2014,03,20,13,57,5.80
2014,03,20,13,58,4.70
2014,03,20,13,59,5.10
2014,03,20,14,00,4.60
2014,03,20,14,01,6.30
2014,03,20,14,02,7.10
2014,03,20,14,03,5.80
2014,03,20,14,04,3.30
2014,03,20,14,05,2.90
2014,03,20,14,06,1.60
2014,03,20,14,07,1.60
2014,03,20,14,08,0.90
2014,03,20,14,09,1.30
2014,03,20,14,10,4.30
2014,03,20,14,11,4.50
2014,03,20,14,12,4.00
2014,03,20,14,13,3.80
2014,03,20,14,14,4.00
2014,03,20,14,15,4.80
2014,03,20,14,16,4.70
2014,03,20,14,17,5.00
2014,03,20,14,18,4.60
2014,03,20,14,19,5.00
2014,03,20,14,20,5.90
2014,03,20,14,21,6.50
2014,03,20,14,22,2.90
2014,03,20,14,23,1.70
2014,03,20,14,24,1.90
2014,03,20,14,25,0.20
2014,03,20,14,26,1.50
2014,03,20,14,27,3.70
2014,03,20,14,28,1.80
2014,03,20,14,29,1.20
2014,03,20,14,30,1.80
2014,03,20,14,31,1.30
2014,03,20,14,32,5.90
2014,03,20,14,33,8.60
2014,03,20,14,34,10.10
2014,03,20,14,35,15.50
2014,03,20,14,36,12.60
2014,03,20,14,37,11.20
2014,03,20,14,38,12.60
2014,03,20,14,39,7.70
2014,03,20,14,40,11.90
2014,03,20,14,41,10.30
2014,03,20,14,42,11.10
2014,03,20,14,43,10.10
2014,03,20,14,44,8.30
2014,03,20,14,45,6.50
2014,03,20,14,46,8.00
2014,03,20,14,47,7.50
2014,03,20,14,48,8.00
2014,03,20,14,49,8.10
2014,03,20,14,50,6.10
2014,03,20,14,51,6.40
2014,03,20,14,52,7.00
2014,03,20,14,53,7.60
2014,03,20,14,54,9.30
2014,03,20,14,55,9.20
2014,03,20,14,56,6.60
2014,03,20,14,57,6.00
2014,03,20,14,58,5.80
2014,03,20,14,59,5.40
2014,03,20,15,00,6.20
2014,03,20,15,01,6.00
2014,03,20,15,02,6.60
2014,03,20,15,03,4.30
2014,03,20,15,04,4.10
2014,03,20,15,05,3.30
2014,03,20,15,06,2.70
2014,03,20,15,07,1.10
2014,03,20,15,08,0.80
2014,03,20,15,09,0.20
2014,03,20,15,10,0.20
2014,03,20,15,11,1.40
2014,03,20,15,12,2.20
2014,03,20,15,13,3.20
2014,03,20,15,14,3.70
2014,03,20,15,15,3.30
2014,03,20,15,16,3.60
2014,03,20,15,17,3.70
2014,03,20,15,18,3.20
2014,03,20,15,19,3.40
2014,03,20,15,20,3.20
2014,03,20,15,21,3.40
2014,03,20,15,22,3.40
2014,03,20,15,23,2.90
2014,03,20,15,24,3.70
2014,03,20,15,25,8.40
2014,03,20,15,26,7.60
2014,03,20,15,27,5.90
2014,03,20,15,28,5.60
2014,03,20,15,29,3.90
2014,03,20,15,30,3.90
2014,03,20,15,31,2.40
2014,03,20,15,32,7.60
2014,03,20,15,33,12.10
2014,03,20,15,34,13.00
2014,03,20,15,35,13.60
2014,03,20,15,36,8.80
2014,03,20,15,37,6.50
2014,03,20,15,38,7.00
2014,03,20,15,39,6.10
2014,03,20,15,40,5.80
2014,03,20,15,41,4.90
2014,03,20,15,42,4.10
2014,03,20,15,43,1.70
2014,03,20,15,44,1.60
2014,03,20,15,45,1.20
2014,03,20,15,46,2.70
2014,03,20,15,47,1.00
2014,03,20,15,48,2.60
2014,03,20,15,49,3.50
2014,03,20,15,50,2.80
2014,03,20,15,51,1.90
2014,03,20,15,52,1.60
2014,03,20,15,53,1.70
2014,03,20,15,54,0.60
2014,03,20,15,55,0.00
2014,03,20,15,56,0.00
2014,03,20,15,57,0.00
2014,03,20,15,58,0.00
2014,03,20,15,59,0.00
2014,03,20,16,00,0.00
2014,03,20,16,01,0.00
2014,03,20,16,02,0.00
2014,03,20,16,03,0.00
2014,03,20,16,04,0.10
2014,03,20,16,05,0.00
2014,03,20,16,06,0.20
2014,03,20,16,07,0.70
2014,03,20,16,08,0.00
2014,03,20,16,09,0.00
2014,03,20,16,10,0.00
2014,03,20,16,11,0.00
2014,03,20,16,12,0.20
2014,03,20,16,13,0.00
2014,03,20,16,14,1.40
2014,03,20,16,15,1.60
2014,03,20,16,16,1.80
2014,03,20,16,17,2.70
2014,03,20,16,18,2.40
2014,03,20,16,19,2.60
2014,03,20,16,20,2.50
2014,03,20,16,21,1.60
2014,03,20,16,22,1.50
2014,03,20,16,23,1.90
2014,03,20,16,24,4.60
2014,03,20,16,25,5.00
2014,03,20,16,26,2.60
2014,03,20,16,27,4.30
2014,03,20,16,28,4.60
2014,03,20,16,29,6.40
2014,03,20,16,30,5.10
2014,03,20,16,31,3.90
2014,03,20,16,32,5.50
2014,03,20,16,33,6.10
2014,03,20,16,34,6.60
2014,03,20,16,35,6.10
2014,03,20,16,36,6.90
2014,03,20,16,37,4.80
2014,03,20,16,38,4.60
2014,03,20,16,39,3.00
2014,03,20,16,40,2.00
2014,03,20,16,41,1.60
2014,03,20,16,42,1.70
2014,03,20,16,43,3.20
2014,03,20,16,44,2.30
2014,03,20,16,45,2.30
2014,03,20,16,46,2.40
2014,03,20,16,47,1.60
2014,03,20,16,48,1.60
2014,03,20,16,49,2.00
2014,03,20,16,50,1.90
2014,03,20,16,51,0.70
2014,03,20,16,52,0.80
2014,03,20,16,53,1.50
2014,03,20,16,54,1.40
2014,03,20,16,55,1.60
2014,03,20,16,56,2.00
2014,03,20,16,57,0.30
2014,03,20,16,58,0.00
2014,03,20,16,59,0.00
2014,03,20,17,00,0.00
2014,03,20,17,01,0.60
2014,03,20,17,02,0.60
2014,03,20,17,03,0.00
2014,03,20,17,04,0.00
2014,03,20,17,05,0.80
2014,03,20,17,06,0.80
2014,03,20,17,07,1.50
2014,03,20,17,08,0.90
2014,03,20,17,09,0.90
2014,03,20,17,10,1.20
2014,03,20,17,11,1.40
2014,03,20,17,12,4.50
2014,03,20,17,13,3.70
2014,03,20,17,14,4.70
2014,03,20,17,15,4.00
2014,03,20,17,16,4.70
2014,03,20,17,17,5.20
2014,03,20,17,18,3.90
2014,03,20,17,19,4.20
2014,03,20,17,20,7.10
2014,03,20,17,21,5.80
2014,03,20,17,22,5.00
2014,03,20,17,23,2.60
2014,03,20,17,24,4.30
2014,03,20,17,25,1.90
2014,03,20,17,26,1.90
2014,03,20,17,27,1.00
2014,03,20,17,28,0.10
2014,03,20,17,29,0.20
2014,03,20,17,30,0.00
2014,03,20,17,31,1.70
2014,03,20,17,32,1.30
2014,03,20,17,33,1.20
2014,03,20,17,34,0.20
2014,03,20,17,35,3.50
2014,03,20,17,36,2.60
2014,03,20,17,37,0.20
2014,03,20,17,38,0.00
2014,03,20,17,39,0.00
2014,03,20,17,40,0.90
2014,03,20,17,41,1.60
2014,03,20,17,42,0.90
2014,03,20,17,43,0.90
2014,03,20,17,44,1.80
2014,03,20,17,45,3.00
2014,03,20,17,46,2.60
2014,03,20,17,47,2.50
2014,03,20,17,48,2.20
2014,03,20,17,49,1.90
2014,03,20,17,50,2.40
2014,03,20,17,51,1.80
2014,03,20,17,52,0.00
2014,03,20,17,53,0.00
2014,03,20,17,54,0.00
2014,03,20,17,55,0.00
2014,03,20,17,56,0.00
2014,03,20,17,57,0.00
2014,03,20,17,58,0.00
2014,03,20,17,59,0.00
2014,03,20,18,00,0.00
2014,03,20,18,01,0.00
2014,03,20,18,02,0.00
2014,03,20,18,03,0.60
2014,03,20,18,04,1.30
2014,03,20,18,05,1.30
2014,03,20,18,06,2.40